Location: ??????
(36.0418°N, 43.6351°E)
Time: 04:55:43
(UTC+00:00)

Cosmos 883 Rocket - Pass Details

Date: 26 June 2021
Orbit: 950 x 996 km, 83.0° (Epoch: 27 July)

Event Time Altitude Azimuth Distance (km) Brightness Sun altitude
Rises 22:41:36 0° 4° (N) 3,630 8.6 -26.7°
Reaches altitude 10° 22:44:24 10° 14° (NNE) 2,680 7.8 -26.5°
Maximum altitude 22:49:48 32° 76° (ENE) 1,580 5.9 -26.0°
Enters shadow 22:54:18 14° 133° (SE) 2,406 6.4 -25.6°
